This demonstration page uses our WeatherBlox Daily Observations layout. Learn more.

40.92945, -100.16068

Hourly Observations for July 18, 2015

Temp ( °F °C ) Dew Point ( °F °C ) Humidity (%) Winds ( mph kmh ) Pressure ( in mb ) Visibility ( mi km ) Precip ( " mm )
12:15 am 00:15 Clear 68 19.9 63 17 83 83 E 20 31 29.74 1007 10 16.0934 N/A
12:35 am 00:35 Clear 67 19.7 63 17 85 85 E 13 20 29.74 1007 10 16.0934 N/A
12:55 am 00:55 Clear 67 19.5 63 17 86 86 ESE 9 15 29.74 1007 10 16.0934 0 0
1:15 am 01:15 Clear 66 19.1 63 17.1 88 88 E 6 9 29.74 1007 10 16.0934 N/A
1:35 am 01:35 Partly Cloudy 66 18.7 63 17.1 90 90 NNW 9 15 29.8 1009 10 16.0934 N/A
1:55 am 01:55 Mostly Cloudy 66 18.7 63 17.4 92 92 NNE 8 13 29.83 1010 10 16.0934 N/A
2:15 am 02:15 Cloudy 66 19.1 62 16.7 86 86 NE 12 19 29.8 1009 10 16.0934 N/A
2:35 am 02:35 Cloudy 67 19.6 62 16.5 82 82 ENE 13 20 29.8 1009 10 16.0934 N/A
2:55 am 02:55 Mostly Cloudy 67 19.7 61 16.2 80 80 E 13 20 29.8 1009 10 16.0934 N/A
3:15 am 03:15 Partly Cloudy 68 20.1 61 16.2 78 78 E 10 17 29.8 1009 10 16.0934 N/A
3:35 am 03:35 Clear 68 20 61 16.1 78 78 E 13 20 29.77 1008 10 16.0934 N/A
3:55 am 03:55 Clear 68 20 62 16.4 80 80 E 12 19 29.77 1008 10 16.0934 N/A
4:15 am 04:15 Clear 68 20 62 16.5 80 80 ESE 12 19 29.74 1007 10 16.0934 N/A
4:35 am 04:35 Clear 67 19.7 62 16.5 82 82 ESE 12 19 29.74 1007 10 16.0934 N/A
4:55 am 04:55 Clear 67 19.5 61 16.3 82 82 ESE 10 17 29.74 1007 10 16.0934 N/A
5:15 am 05:15 Clear 67 19.2 61 16.3 83 83 ESE 9 15 29.74 1007 10 16.0934 N/A
5:35 am 05:35 Clear 67 19.2 61 16.1 82 82 ESE 7 11 29.77 1008 10 16.0934 N/A
5:55 am 05:55 Clear 65 18.3 61 16 87 87 ENE 3 6 29.83 1010 10 16.0934 N/A
6:15 am 06:15 Clear 64 17.5 61 16 91 91 Calm 29.83 1010 10 16.0934 N/A
6:35 am 06:35 Sunny 64 17.7 61 16.3 92 92 SE 3 6 29.83 1010 10 16.0934 N/A
6:55 am 06:55 Sunny 66 19 62 16.7 87 87 SSE 7 11 29.8 1009 10 16.0934 0 0
7:15 am 07:15 Sunny 66 18.7 62 16.7 88 88 Calm 29.8 1009 10 16.0934 N/A
7:35 am 07:35 Sunny 66 18.9 62 16.9 88 88 Calm 29.8 1009 10 16.0934 N/A
7:55 am 07:55 Sunny 68 20.2 63 17.1 82 82 ESE 3 6 29.83 1010 10 16.0934 N/A
8:15 am 08:15 Sunny 70 21 63 17.1 79 79 SSE 5 7 29.83 1010 10 16.0934 N/A
8:35 am 08:35 Sunny 71 21.6 62 16.8 74 74 Calm 29.83 1010 10 16.0934 N/A
8:55 am 08:55 Sunny 71 21.9 62 16.8 73 73 Calm 29.83 1010 10 16.0934 N/A
9:15 am 09:15 Sunny 73 22.7 62 16.8 69 69 Calm 29.8 1009 10 16.0934 N/A
9:35 am 09:35 Sunny 74 23.5 63 17.4 69 69 SSE 5 7 29.8 1009 10 16.0934 N/A
9:55 am 09:55 Sunny 75 24.1 64 17.5 67 67 SSE 5 7 29.8 1009 10 16.0934 N/A
10:15 am 10:15 Sunny 76 24.6 64 17.5 65 65 Calm 29.83 1010 10 16.0934 N/A
10:35 am 10:35 Sunny 77 25.1 64 17.8 64 64 SSW 3 6 29.83 1010 10 16.0934 N/A
10:55 am 10:55 Sunny 78 25.5 65 18.3 64 64 SSE 3 6 29.83 1010 10 16.0934 N/A
11:15 am 11:15 Sunny 79 26 65 18.3 63 63 Calm 29.83 1010 10 16.0934 N/A
11:35 am 11:35 Sunny 79 26 65 18.6 64 64 Calm 29.83 1010 10 16.0934 N/A
11:55 am 11:55 Sunny 81 27 68 20.1 66 66 N 5 7 29.8 1009 10 16.0934 N/A
12:15 pm 12:15 Sunny 81 27 68 19.9 65 65 N 3 6 29.8 1009 10 16.0934 N/A
12:35 pm 12:35 Sunny 81 27.4 70 21.1 69 69 N 8 13 29.8 1009 10 16.0934 N/A
12:55 pm 12:55 Sunny 81 27.4 69 20.5 66 66 NW 8 13 29.8 1009 10 16.0934 N/A
1:15 pm 13:15 Sunny 82 28 68 20.2 63 63 NW 7 11 29.8 1009 10 16.0934 N/A
1:35 pm 13:35 Sunny 83 28.6 69 20.6 62 62 NW 6 9 29.8 1009 10 16.0934 N/A
1:55 pm 13:55 Sunny 85 29.3 70 21 61 61 WNW 8 13 29.8 1009 10 16.0934 N/A
2:15 pm 14:15 Sunny 86 29.8 69 20.8 58 58 N 5 7 29.77 1008 10 16.0934 N/A
2:35 pm 14:35 Sunny 87 30.4 69 20.7 56 56 NNW 6 9 29.77 1008 10 16.0934 N/A
2:55 pm 14:55 Sunny 88 31 70 21.2 56 56 NNE 7 11 29.77 1008 10 16.0934 N/A
3:15 pm 15:15 Sunny 88 31.1 68 19.9 51 51 NE 8 13 29.77 1008 10 16.0934 N/A
3:35 pm 15:35 Sunny 88 31.3 69 20.3 52 52 NNE 9 15 29.77 1008 10 16.0934 N/A
3:55 pm 15:55 Sunny 88 31.1 68 19.8 51 51 NE 7 11 29.77 1008 10 16.0934 N/A
4:15 pm 16:15 Sunny 88 31.3 67 19.2 49 49 E 6 9 29.77 1008 10 16.0934 N/A
4:35 pm 16:35 Sunny 89 31.4 67 19.4 49 49 NE 5 7 29.77 1008 10 16.0934 N/A
4:55 pm 16:55 Sunny 88 31.3 66 18.8 47 47 E 9 15 29.77 1008 10 16.0934 N/A
5:15 pm 17:15 Sunny 88 31.1 66 18.8 48 48 E 8 13 29.77 1008 10 16.0934 N/A
5:35 pm 17:35 Sunny 87 30.7 65 18.5 48 48 E 9 15 29.77 1008 10 16.0934 N/A
5:55 pm 17:55 Sunny 88 30.9 67 19.3 50 50 E 9 15 29.77 1008 10 16.0934 N/A
6:15 pm 18:15 Sunny 87 30.6 67 19.6 52 52 E 10 17 29.77 1008 10 16.0934 N/A
6:35 pm 18:35 Sunny 87 30.5 67 19.7 52 52 E 10 17 29.77 1008 10 16.0934 N/A
6:55 pm 18:55 Sunny 86 30.2 68 20.1 55 55 ENE 9 15 29.77 1008 10 16.0934 N/A
7:15 pm 19:15 Sunny 86 29.8 68 19.9 55 55 E 9 15 29.77 1008 10 16.0934 N/A
7:35 pm 19:35 Sunny 85 29.3 68 19.8 57 57 E 10 17 29.8 1009 10 16.0934 N/A
7:55 pm 19:55 Sunny 84 28.7 68 20.1 60 60 E 10 17 29.8 1009 10 16.0934 N/A
8:15 pm 20:15 Sunny 82 28 68 20.1 62 62 E 9 15 29.8 1009 10 16.0934 N/A
8:35 pm 20:35 Sunny 81 27.2 68 19.8 64 64 E 9 15 29.8 1009 10 16.0934 N/A
8:55 pm 20:55 Mostly Cloudy 81 27 68 20 66 66 E 8 13 29.83 1010 10 16.0934 N/A
9:15 pm 21:15 Mostly Cloudy 78 25.8 68 20.1 71 71 E 7 11 29.85 1011 10 16.0934 N/A
9:35 pm 21:35 Partly Cloudy 76 24.3 68 20.2 78 78 ENE 5 7 29.85 1011 10 16.0934 N/A
9:55 pm 21:55 Clear 74 23.6 68 19.9 80 80 ENE 6 9 29.85 1011 10 16.0934 N/A
10:15 pm 22:15 Clear 74 23.1 67 19.4 80 80 ENE 5 7 29.88 1012 10 16.0934 N/A
10:35 pm 22:35 Clear 73 22.5 67 19.6 84 84 E 5 7 29.91 1013 10 16.0934 N/A
10:55 pm 22:55 Clear 73 22.5 67 19.7 84 84 NE 3 6 29.91 1013 10 16.0934 N/A
11:15 pm 23:15 Clear 74 23.1 68 20 83 83 NNE 3 6 29.91 1013 10 16.0934 N/A
11:35 pm 23:35 Clear 73 23 68 20.2 84 84 N 5 7 29.94 1014 10 16.0934 N/A
11:55 pm 23:55 Partly Cloudy 73 23 69 20.3 85 85 N 6 9 29.94 1014 10 16.0934 N/A

Powered by AerisWeather